sat.trackr.live / text

‹ back to catalog

TIANYI E

NORAD 64052 · 2025-103E

PAYLOAD ACTIVE UNKNOWN

§ Identity

Operator
Country
PRC
Launch date
2025-05-17
Launch site
JSC
Launch vehicle
Mass (kg)
RCS (m²)

External: N2YO · Heavens-Above · Gunter

§ Orbital elements

Epoch: 2026-05-25T05:25:33.059712Z

Period
94.53 min
Inclination
97.3750°
Eccentricity
0.0001690
Mean motion
15.23366792 rev/d
Perigee alt
494.5 km
Apogee alt
496.9 km
Semi-major
6,873.8 km
B*
4.1667e-4
RAAN
218.0674°
Arg perigee
216.8262°
Mean anomaly
143.2859°
Rev number
5,661

§ Raw data

TIANYI E1 64052U 25103E   26145.22607708  .00009840  00000+0  41667-3 0  99952 64052  97.3750 218.0674 0001690 216.8262 143.2859 15.23366792 56615

JSON: /api/v1/satellites/64052 · /tle

For live sub-satellite position, see the globe view (requires WebGL).

§ Visibility from observer

Set your observer location to see the next 7 days of passes ≥ 10°. The values pass through the URL so the page stays shareable.

No JS? Fill the form by hand. The geolocation button needs JavaScript.

§ Radio — SatNOGS DB

ModeDescriptionDownlinkUplink
FM Mode U - Transmitter 401.250 MHz

1 transmitter · refreshed weekly from db.satnogs.org